Date,TemperatureHighF,TemperatureAvgF,TemperatureLowF,DewpointHighF,DewpointAvgF,DewpointLowF,HumidityHigh,HumidityAvg,HumidityLow,PressureMaxIn,PressureMinIn,WindSpeedMaxMPH,WindSpeedAvgMPH,GustSpeedMaxMPH,PrecipitationSumIn
2013-3-1,43.0,34.7,24.7,29.0,21.7,14.0,74,60,41,30.39,30.30,4,1,11,0.00
2013-3-2,54.4,44.6,34.4,37.0,29.6,24.0,68,57,37,30.35,29.96,13,2,19,0.00
2013-3-3,59.6,52.8,44.9,32.0,28.6,25.0,53,40,30,29.95,29.45,32,9,48,0.00
2013-3-4,49.3,30.6,20.5,31.0,24.1,11.0,98,79,46,30.29,29.46,35,5,38,0.06
2013-3-5,36.9,25.0,12.9,23.0,17.9,10.0,90,75,56,30.45,30.29,7,1,10,0.00
2013-3-6,56.1,37.6,23.5,36.0,28.5,20.0,90,72,40,30.30,29.87,7,1,12,0.00
2013-3-7,62.3,46.8,34.9,37.0,31.0,26.0,77,57,30,29.93,29.82,9,2,15,0.00
2013-3-8,43.4,36.3,29.4,35.0,30.7,24.0,93,80,63,29.88,29.67,7,1,9,0.00
2013-3-9,36.3,31.9,23.6,34.0,29.7,17.0,100,92,61,30.16,29.64,15,4,24,0.26
2013-3-10,46.1,32.9,18.3,28.0,20.8,13.0,83,63,41,30.25,30.07,10,2,21,0.03
2013-3-11,51.6,42.3,28.5,32.0,25.0,20.0,100,54,37,30.10,29.82,31,12,43,0.00
2013-3-12,38.2,28.5,23.3,29.0,26.6,23.0,100,93,69,30.37,30.10,8,2,11,0.21
2013-3-13,62.0,42.7,26.0,42.0,31.2,25.0,99,68,31,30.38,30.20,15,3,27,0.00
2013-3-14,69.3,58.4,44.1,37.0,30.5,26.0,56,36,22,30.20,29.93,20,5,26,0.00
2013-3-15,72.8,63.6,54.2,35.0,31.8,28.0,45,31,22,29.92,29.60,29,10,34,0.00
2013-3-16,58.8,45.5,38.0,37.0,34.0,29.0,78,65,39,29.79,29.63,14,4,24,0.00
2013-3-17,56.0,43.7,33.9,32.0,25.9,11.0,75,52,30,29.76,29.45,27,8,43,0.00
2013-3-18,47.2,40.1,32.0,20.0,14.7,8.0,42,36,28,29.91,29.77,27,10,42,0.00
2013-3-19,53.5,42.7,25.2,19.0,9.8,3.0,78,29,16,30.31,29.90,22,8,33,0.00
2013-3-20,50.4,36.5,20.1,30.0,23.4,16.0,87,62,40,30.30,29.76,15,3,22,0.00
2013-3-21,54.7,45.5,35.5,38.0,25.0,10.0,77,46,28,29.76,29.42,22,7,33,0.00
2013-3-22,41.9,31.4,25.3,31.0,21.9,13.0,100,71,39,29.99,29.71,17,5,21,0.00
2013-3-23,25.0,19.0,14.1,25.0,18.3,11.0,100,97,85,30.39,29.98,13,5,21,0.12
2013-3-24,29.1,17.9,6.3,27.0,16.2,5.0,98,93,82,30.47,30.33,8,2,9,0.05
2013-3-25,34.0,22.4,11.1,27.0,18.4,10.0,98,85,70,30.50,30.38,8,2,12,0.00
2013-3-26,41.1,30.7,18.4,32.0,24.0,15.0,88,76,54,30.37,30.04,7,2,8,0.00
2013-3-27,51.7,40.7,30.8,40.0,33.9,27.0,91,77,60,30.13,30.04,10,1,12,0.00
2013-3-28,58.4,45.4,33.7,40.0,35.1,31.0,93,70,43,30.08,30.01,9,1,14,0.00
2013-3-29,62.7,51.0,41.4,38.0,34.5,32.0,73,55,35,30.05,29.93,20,3,25,0.00
2013-3-30,63.5,49.1,38.7,40.0,35.5,31.0,97,63,32,30.12,29.88,24,4,33,0.00
2013-3-31,66.8,49.7,34.8,40.0,34.3,29.0,94,60,30,30.10,29.83,14,4,19,0.00